Weather History for Murray, KY

Change the Weather History Date:

Friday, February 28, 2014

  Actual Average (KPAH) Record (KPAH)
Temperature  
Mean Temperature 34 °F 43 °F  
Max Temperature 50 °F 53 °F 73 °F (1976)
Min Temperature 19 °F 33 °F 17 °F (1993)
Degree Days  
Heating Degree Days 30 22  
Month to date heating degree days 722  
Since 1 July heating degree days 3296  
Cooling Degree Days 0 0  
Month to date cooling degree days 0  
Year to date cooling degree days 0  
Moisture  
Dew Point 12 °F    
Average Humidity 40    
Maximum Humidity 61    
Minimum Humidity 20    
Precipitation  
Precipitation 0.00 in 0.13 in 1.78 in (1997)
Month to date precipitation 3.91  
Year to date precipitation 7.59  
Snow  
Snow 0.00 in 0.10 in 5.00 in (1984)
Month to date snowfall 3.2  
Since 1 July snowfall 8.5  
Snow Depth -    
Sea Level Pressure  
Sea Level Pressure 30.07 in    
Wind  
Wind Speed 7 mph (SE)    
Max Wind Speed 12 mph    
Max Gust Speed 21 mph    
Visibility 10 miles    
Events      
T = Trace of Precipitation, MM = Missing Value Source: NWS Daily Summary

Daily Weather History Graph

Daily Weather History Graph

Search for Another Location

Airport:

Trip Planner

Search our weather history database for the weather conditions in past years. The results will help you decide how hot, cold, wet, or windy it might be!

Date:

Astronomy

Feb. 28, 2014 Rise Set
Actual Time 6:25 AM CST 5:47 PM CST
Civil Twilight 5:59 AM CST 6:13 PM CST
Nautical Twilight 5:29 AM CST 6:43 PM CST
Astronomical Twilight 4:59 AM CST 7:12 PM CST
Moon 5:39 AM CST (2/28) 5:23 PM CST (2/28)
Length of Visible Light 12h 13m
Length of Day
11h 21m
Waning Crescent, 1% of the Moon is Illuminated
Feb 28
Waning Crescent
Mar 1
New
Mar 8
First Quarter
Mar 16
Full
Mar 23
Last Quarter

Hourly Weather History & Observations

Time (CST) Temp. Windchill Dew Point Humidity Pressure Visibility Wind Dir Wind Speed Gust Speed Precip Events Conditions
12:15 AM 21.2 °F 12.6 °F 6.8 °F 54% 30.10 in 10.0 mi East 6.9 mph - N/A   Clear
12:35 AM 23.0 °F 13.9 °F 6.8 °F 50% 30.10 in 10.0 mi East 8.1 mph - N/A   Clear
12:55 AM 21.2 °F 12.6 °F 6.8 °F 54% 30.10 in 10.0 mi East 6.9 mph - N/A   Clear
1:15 AM 21.2 °F 10.9 °F 6.8 °F 54% 30.10 in 10.0 mi East 9.2 mph - N/A   Clear
1:35 AM 21.2 °F 10.9 °F 8.6 °F 58% 30.09 in 10.0 mi East 9.2 mph - N/A   Clear
1:55 AM 21.2 °F 10.9 °F 6.8 °F 54% 30.09 in 10.0 mi East 9.2 mph - N/A   Clear
2:15 AM 21.2 °F 10.9 °F 6.8 °F 54% 30.09 in 10.0 mi East 9.2 mph - N/A   Clear
2:35 AM 21.2 °F 12.6 °F 6.8 °F 54% 30.10 in 10.0 mi East 6.9 mph - N/A   Clear
2:55 AM 21.2 °F 11.7 °F 6.8 °F 54% 30.10 in 10.0 mi East 8.1 mph - N/A   Clear
3:15 AM 21.2 °F 10.9 °F 6.8 °F 54% 30.10 in 10.0 mi East 9.2 mph - N/A   Clear
3:35 AM 23.0 °F 12.4 °F 6.8 °F 50% 30.10 in 10.0 mi East 10.4 mph - N/A   Clear
3:55 AM 23.0 °F 12.4 °F 6.8 °F 50% 30.09 in 10.0 mi East 10.4 mph - N/A   Clear
4:15 AM 23.0 °F 13.1 °F 6.8 °F 50% 30.10 in 10.0 mi East 9.2 mph - N/A   Clear
4:35 AM 23.0 °F 14.7 °F 6.8 °F 50% 30.11 in 10.0 mi ESE 6.9 mph - N/A   Clear
4:55 AM 21.2 °F 12.6 °F 6.8 °F 54% 30.11 in 10.0 mi East 6.9 mph - N/A   Clear
5:15 AM 21.2 °F 13.6 °F 6.8 °F 54% 30.12 in 10.0 mi East 5.8 mph - N/A   Clear
5:35 AM 19.4 °F 11.5 °F 6.8 °F 58% 30.12 in 10.0 mi ESE 5.8 mph - N/A   Clear
5:55 AM 19.4 °F 10.4 °F 6.8 °F 58% 30.12 in 10.0 mi ESE 6.9 mph - N/A   Partly Cloudy
6:15 AM 19.4 °F 10.4 °F 6.8 °F 58% 30.11 in 10.0 mi ESE 6.9 mph - N/A   Mostly Cloudy
6:35 AM 19.4 °F 10.4 °F 6.8 °F 58% 30.11 in 10.0 mi ESE 6.9 mph - N/A   Partly Cloudy
6:55 AM 21.2 °F 13.6 °F 6.8 °F 54% 30.13 in 10.0 mi East 5.8 mph - N/A   Clear
7:15 AM 21.2 °F 11.7 °F 6.8 °F 54% 30.13 in 10.0 mi East 8.1 mph - N/A   Clear
7:35 AM 23.0 °F 14.7 °F 6.8 °F 50% 30.13 in 10.0 mi ESE 6.9 mph - N/A   Clear
7:55 AM 23.0 °F 13.1 °F 6.8 °F 50% 30.13 in 10.0 mi East 9.2 mph - N/A   Clear
8:15 AM 26.6 °F 16.8 °F 6.8 °F 43% 30.14 in 10.0 mi ESE 10.4 mph - N/A   Clear
8:35 AM 28.4 °F 20.4 °F 8.6 °F 43% 30.13 in 10.0 mi SE 8.1 mph - N/A   Clear
8:55 AM 28.4 °F 19.1 °F 6.8 °F 40% 30.13 in 10.0 mi SE 10.4 mph - N/A   Clear
9:15 AM 32.0 °F 23.0 °F 6.8 °F 35% 30.13 in 10.0 mi SE 11.5 mph 17.3 mph N/A   Clear
9:35 AM 32.0 °F 23.0 °F 6.8 °F 35% 30.12 in 10.0 mi ESE 11.5 mph 18.4 mph N/A   Clear
9:55 AM 33.8 °F 25.3 °F 6.8 °F 32% 30.12 in 10.0 mi SE 11.5 mph 17.3 mph N/A   Clear
10:15 AM 35.6 °F 27.5 °F 8.6 °F 33% 30.12 in 10.0 mi ESE 11.5 mph - N/A   Clear
10:35 AM 37.4 °F 30.3 °F 8.6 °F 30% 30.13 in 10.0 mi SE 10.4 mph - N/A   Clear
10:55 AM 37.4 °F 32.1 °F 8.6 °F 30% 30.13 in 10.0 mi SE 6.9 mph - N/A   Clear
11:15 AM 39.2 °F 33.6 °F 8.6 °F 28% 30.13 in 10.0 mi ESE 8.1 mph - N/A   Clear
11:35 AM 41.0 °F 35.8 °F 8.6 °F 26% 30.11 in 10.0 mi SE 8.1 mph - N/A   Clear
11:55 AM 41.0 °F 36.4 °F 8.6 °F 26% 30.10 in 10.0 mi ESE 6.9 mph - N/A   Clear
12:15 PM 44.6 °F 40.7 °F 8.6 °F 23% 30.09 in 10.0 mi East 6.9 mph - N/A   Clear
12:35 PM 44.6 °F 40.7 °F 8.6 °F 23% 30.07 in 10.0 mi SE 6.9 mph - N/A   Clear
12:55 PM 44.6 °F 42.2 °F 8.6 °F 23% 30.06 in 10.0 mi ESE 4.6 mph - N/A   Clear
1:15 PM 46.4 °F 42.4 °F 8.6 °F 22% 30.04 in 10.0 mi SSE 8.1 mph - N/A   Clear
1:35 PM 46.4 °F 43.5 °F 10.4 °F 23% 30.04 in 10.0 mi SSE 5.8 mph - N/A   Clear
1:55 PM 46.4 °F 42.4 °F 8.6 °F 22% 30.02 in 10.0 mi SE 8.1 mph - N/A   Clear
2:15 PM 48.2 °F - 10.4 °F 22% 30.02 in 10.0 mi SSE 5.8 mph 17.3 mph N/A   Clear
2:35 PM 48.2 °F - 10.4 °F 22% 30.00 in 10.0 mi SE 9.2 mph - N/A   Clear
2:55 PM 48.2 °F - 10.4 °F 22% 30.01 in 10.0 mi SSE 4.6 mph - N/A   Clear
3:15 PM 50.0 °F - 10.4 °F 20% 30.00 in 10.0 mi SE 6.9 mph - N/A   Clear
3:35 PM 48.2 °F - 10.4 °F 22% 29.99 in 10.0 mi SSE 6.9 mph - N/A   Clear
3:55 PM 48.2 °F - 12.2 °F 24% 29.99 in 10.0 mi ESE 6.9 mph - N/A   Clear
4:15 PM 48.2 °F - 10.4 °F 22% 29.99 in 10.0 mi SE 6.9 mph - N/A   Clear
4:35 PM 50.0 °F - 10.4 °F 20% 29.99 in 10.0 mi ESE 8.1 mph - N/A   Clear
4:55 PM 48.2 °F - 12.2 °F 24% 29.99 in 10.0 mi SE 5.8 mph - N/A   Clear
5:15 PM 46.4 °F 45.2 °F 14.0 °F 27% 29.99 in 10.0 mi SE 3.5 mph - N/A   Clear
5:35 PM 46.4 °F - 10.4 °F 23% 29.99 in 10.0 mi Calm Calm - N/A   Clear
5:55 PM 44.6 °F 42.2 °F 12.2 °F 27% 29.98 in 10.0 mi SE 4.6 mph - N/A   Clear
6:15 PM 41.0 °F 39.0 °F 14.0 °F 33% 29.98 in 10.0 mi SE 3.5 mph - N/A   Partly Cloudy
6:35 PM 41.0 °F 39.0 °F 12.2 °F 31% 29.98 in 10.0 mi SE 3.5 mph - N/A   Partly Cloudy
6:55 PM 42.8 °F 41.1 °F 10.4 °F 27% 29.99 in 10.0 mi SE 3.5 mph - N/A   Mostly Cloudy
7:15 PM 42.8 °F - 15.8 °F 34% 30.00 in 10.0 mi Calm Calm - N/A   Overcast
7:35 PM 44.6 °F 43.1 °F 15.8 °F 31% 30.02 in 10.0 mi SW 3.5 mph - N/A   Overcast
7:55 PM 46.4 °F 42.4 °F 19.4 °F 34% 30.03 in 10.0 mi SSW 8.1 mph 20.7 mph N/A   Overcast
8:15 PM 46.4 °F 42.9 °F 23.0 °F 40% 30.04 in 10.0 mi SSW 6.9 mph - N/A   Overcast
8:35 PM 46.4 °F 41.9 °F 23.0 °F 40% 30.04 in 10.0 mi SSW 9.2 mph - N/A   Overcast
8:55 PM 46.4 °F 42.4 °F 23.0 °F 40% 30.05 in 10.0 mi South 8.1 mph - N/A   Overcast
9:15 PM 46.4 °F 41.9 °F 24.8 °F 43% 30.06 in 10.0 mi South 9.2 mph - N/A   Overcast
9:35 PM 44.6 °F 40.2 °F 26.6 °F 49% 30.07 in 10.0 mi SW 8.1 mph - N/A   Overcast
9:55 PM 44.6 °F 43.1 °F 26.6 °F 49% 30.07 in 10.0 mi South 3.5 mph - N/A   Overcast
10:15 PM 44.6 °F 43.1 °F 28.4 °F 53% 30.07 in 10.0 mi South 3.5 mph - N/A   Overcast
10:35 PM 44.6 °F 42.2 °F 28.4 °F 53% 30.08 in 10.0 mi South 4.6 mph - N/A   Overcast
10:55 PM 42.8 °F 39.3 °F 30.2 °F 61% 30.06 in 10.0 mi SSE 5.8 mph - N/A   Overcast
11:15 PM 42.8 °F 38.6 °F 30.2 °F 61% 30.06 in 10.0 mi South 6.9 mph - N/A   Overcast
11:35 PM 42.8 °F 39.3 °F 30.2 °F 61% 30.06 in 10.0 mi South 5.8 mph - N/A   Overcast
11:55 PM 42.8 °F 39.3 °F 30.2 °F 61% 30.07 in 10.0 mi SSW 5.8 mph - N/A   Overcast